Location: Home
(42.5358°N, 72.7383°W)
Time: 09:07:21
(UTC-05:00)

deb Explorer IX - Pass Details

Date: 09 December 2021
Orbit: 544 x 1082 km, 38.8° (Epoch: 19 January)

Event Time Altitude Azimuth Distance (km) Brightness Sun altitude
Rises 11:34:46 0° 272° (W) 3,040 ? 24.6°
Reaches altitude 10° 11:37:24 10° 265° (W) 2,040 ? 24.6°
Maximum altitude 11:41:41 37° 198° (SSW) 933 ? 24.6°
Drops below altitude 10° 11:45:33 10° 130° (SE) 1,844 ? 24.6°
Sets 11:47:50 0° 122° (ESE) 2,708 ? 24.6°
